Ely, MN

10:16 PM CDT on August 31, 2016 (GMT -0500)
Ely Municipal

Weather History for KELO - July, 2013

Change the Weather History Date:

Friday, July 19, 2013

  Actual Average Record
Temperature  
Mean Temperature 68 °F -  
Max Temperature 75 °F 74 °F 84 °F (2001)
Min Temperature 60 °F 52 °F 41 °F (2000)
Cooling Degree Days 4    
Growing Degree Days 18 (Base 50)    
Moisture  
Dew Point 57 °F    
Average Humidity 72    
Maximum Humidity 100    
Minimum Humidity 36    
Precipitation  
Precipitation 0.01 in - - ()
Sea Level Pressure  
Sea Level Pressure 29.73 in    
Wind  
Wind Speed 7 mph (WNW)    
Max Wind Speed 17 mph    
Max Gust Speed 28 mph    
Visibility 10 miles    
Events Rain    
Averages and records for this station are not official NWS values.
T = Trace of Precipitation, MM = Missing Value Source: NWS Daily Summary

Daily Weather History Graph

Daily Weather History Graph

Search for Another Location

Airport or City:

Trip Planner

Search our weather history database for the weather conditions in past years. The results will help you decide how hot, cold, wet, or windy it might be!

Date:

Astronomy

Jul. 19, 2013 Rise Set
Actual Time 5:28 AM CDT 8:57 PM CDT
Civil Twilight 4:50 AM CDT 9:36 PM CDT
Nautical Twilight 3:59 AM CDT 10:26 PM CDT
Astronomical Twilight 2:50 AM CDT 11:34 PM CDT
Moon 6:00 PM CDT (7/19) 2:11 AM CDT (7/19)
Length of Visible Light 16h 45m
Length of Day
15h 29m
Waxing Gibbous, 87% of the Moon is Illuminated
Jul 19
Waxing Gibbous
Jul 22
Full
Jul 29
Last Quarter
Aug 6
New
Aug 14
First Quarter

Hourly Weather History & Observations

Time (CDT) Temp. Dew Point Humidity Pressure Visibility Wind Dir Wind Speed Gust Speed Precip Events Conditions
12:13 AM 66.2 °F 64.4 °F 94% 29.65 in 10.0 mi WSW 3.5 mph - N/A   Scattered Clouds
12:33 AM 66.2 °F 64.4 °F 94% 29.64 in 10.0 mi Calm Calm - 0.01 in Rain Light Rain
12:52 AM 66.2 °F 64.4 °F 94% 29.64 in 10.0 mi Calm Calm - 0.01 in   Scattered Clouds
1:13 AM 64.4 °F 64.4 °F 100% 29.64 in 10.0 mi SSW 4.6 mph - N/A   Clear
1:33 AM 64.4 °F 64.4 °F 100% 29.64 in 10.0 mi SW 3.5 mph - N/A   Clear
1:53 AM 64.4 °F 64.4 °F 100% 29.63 in 10.0 mi SSW 6.9 mph - N/A   Clear
2:13 AM 64.4 °F 64.4 °F 100% 29.62 in 10.0 mi SSW 4.6 mph - N/A   Clear
2:33 AM 64.4 °F 62.6 °F 94% 29.62 in 10.0 mi WSW 4.6 mph - N/A   Clear
2:53 AM 64.4 °F 64.4 °F 100% 29.61 in 10.0 mi WSW 8.1 mph - N/A   Clear
3:13 AM 64.4 °F 64.4 °F 100% 29.60 in 10.0 mi WSW 5.8 mph - N/A   Clear
3:33 AM 64.4 °F 64.4 °F 100% 29.60 in 10.0 mi WSW 4.6 mph - N/A   Clear
3:52 AM 64.4 °F 64.4 °F 100% 29.61 in 10.0 mi WSW 5.8 mph - N/A   Scattered Clouds
4:13 AM 64.4 °F 64.4 °F 100% 29.61 in 10.0 mi WSW 6.9 mph - N/A   Scattered Clouds
4:33 AM 66.2 °F 64.4 °F 94% 29.61 in 10.0 mi WSW 5.8 mph - N/A   Clear
4:52 AM 66.2 °F 64.4 °F 94% 29.62 in 10.0 mi West 8.1 mph - N/A   Clear
5:13 AM 66.2 °F 64.4 °F 94% 29.63 in 10.0 mi West 8.1 mph - N/A   Mostly Cloudy
5:32 AM 66.2 °F 64.4 °F 94% 29.64 in 10.0 mi West 9.2 mph - N/A   Mostly Cloudy
5:53 AM 66.2 °F 64.4 °F 94% 29.65 in 10.0 mi WNW 5.8 mph - N/A   Mostly Cloudy
6:12 AM 66.2 °F 64.4 °F 94% 29.66 in 10.0 mi NNW 4.6 mph - N/A   Scattered Clouds
6:33 AM 64.4 °F 62.6 °F 94% 29.66 in 10.0 mi NNW 3.5 mph - N/A   Scattered Clouds
6:53 AM 66.2 °F 62.6 °F 88% 29.67 in 10.0 mi WNW 6.9 mph - N/A   Scattered Clouds
7:12 AM 64.4 °F 60.8 °F 88% 29.68 in 10.0 mi NW 10.4 mph 18.4 mph N/A   Scattered Clouds
7:33 AM 64.4 °F 60.8 °F 88% 29.69 in 10.0 mi NW 9.2 mph 16.1 mph N/A   Scattered Clouds
7:53 AM 64.4 °F 60.8 °F 88% 29.70 in 10.0 mi NW 8.1 mph - N/A   Mostly Cloudy
8:12 AM 66.2 °F 60.8 °F 83% 29.71 in 10.0 mi NW 11.5 mph 21.9 mph N/A   Scattered Clouds
8:33 AM 66.2 °F 60.8 °F 83% 29.72 in 10.0 mi NW 8.1 mph - N/A   Scattered Clouds
8:53 AM 64.4 °F 60.8 °F 88% 29.73 in 10.0 mi WNW 11.5 mph 16.1 mph N/A   Mostly Cloudy
9:13 AM 66.2 °F 60.8 °F 83% 29.74 in 10.0 mi NW 6.9 mph - N/A   Scattered Clouds
9:33 AM 68.0 °F 60.8 °F 78% 29.74 in 10.0 mi WNW 12.7 mph 17.3 mph N/A   Scattered Clouds
9:52 AM 68.0 °F 60.8 °F 78% 29.75 in 10.0 mi NW 6.9 mph 16.1 mph N/A   Scattered Clouds
10:13 AM 66.2 °F 57.2 °F 73% 29.75 in 10.0 mi WNW 9.2 mph 16.1 mph N/A   Mostly Cloudy
10:33 AM 69.8 °F 59.0 °F 68% 29.76 in 10.0 mi WNW 11.5 mph - N/A   Scattered Clouds
10:52 AM 68.0 °F 59.0 °F 73% 29.76 in 10.0 mi West 12.7 mph 18.4 mph N/A   Scattered Clouds
11:13 AM 69.8 °F 59.0 °F 68% 29.76 in 10.0 mi WNW 9.2 mph 17.3 mph N/A   Unknown
11:33 AM 71.6 °F 57.2 °F 60% 29.76 in 10.0 mi WNW 11.5 mph 21.9 mph N/A   Scattered Clouds
11:52 AM 71.6 °F 53.6 °F 53% 29.76 in 10.0 mi WNW 16.1 mph 25.3 mph N/A   Scattered Clouds
12:13 PM 71.6 °F 55.4 °F 57% 29.77 in 10.0 mi NW 12.7 mph 21.9 mph N/A   Scattered Clouds
12:33 PM 71.6 °F 55.4 °F 57% 29.77 in 10.0 mi WNW 11.5 mph 20.7 mph N/A   Scattered Clouds
12:52 PM 73.4 °F 53.6 °F 50% 29.77 in 10.0 mi WNW 15.0 mph 19.6 mph N/A   Scattered Clouds
1:13 PM 73.4 °F 50.0 °F 44% 29.77 in 10.0 mi NW 11.5 mph 18.4 mph N/A   Scattered Clouds
1:33 PM 71.6 °F 51.8 °F 50% 29.78 in 10.0 mi WNW 15.0 mph 21.9 mph N/A   Scattered Clouds
1:52 PM 73.4 °F 51.8 °F 47% 29.78 in 10.0 mi WNW 8.1 mph 16.1 mph N/A   Mostly Cloudy
2:13 PM 73.4 °F 51.8 °F 47% 29.78 in 10.0 mi WNW 15.0 mph 25.3 mph N/A   Scattered Clouds
2:33 PM 73.4 °F 46.4 °F 38% 29.78 in 10.0 mi WNW 13.8 mph 21.9 mph N/A   Clear
2:52 PM 75.2 °F 46.4 °F 36% 29.78 in 10.0 mi WNW 12.7 mph 19.6 mph N/A   Scattered Clouds
3:13 PM 73.4 °F 48.2 °F 41% 29.78 in 10.0 mi West 11.5 mph 17.3 mph N/A   Mostly Cloudy
3:33 PM 75.2 °F 48.2 °F 38% 29.78 in 10.0 mi West 16.1 mph 24.2 mph N/A   Mostly Cloudy
3:52 PM 73.4 °F 46.4 °F 38% 29.78 in 10.0 mi WNW 13.8 mph 24.2 mph N/A   Scattered Clouds
4:13 PM 75.2 °F 46.4 °F 36% 29.77 in 10.0 mi West 17.3 mph 27.6 mph N/A   Clear
4:33 PM 73.4 °F 46.4 °F 38% 29.77 in 10.0 mi West 13.8 mph 20.7 mph N/A   Scattered Clouds
4:53 PM 71.6 °F 48.2 °F 43% 29.77 in 10.0 mi West 10.4 mph 16.1 mph N/A   Mostly Cloudy
5:13 PM 71.6 °F 50.0 °F 46% 29.77 in 10.0 mi West 6.9 mph - N/A   Overcast
5:32 PM 69.8 °F 51.8 °F 53% 29.77 in 10.0 mi WNW 4.6 mph - N/A   Overcast
5:53 PM 69.8 °F 51.8 °F 53% 29.78 in 10.0 mi NW 12.7 mph 16.1 mph N/A Rain Light Rain
6:12 PM 69.8 °F 53.6 °F 56% 29.78 in 10.0 mi WNW 9.2 mph - N/A Rain Light Rain
6:33 PM 68.0 °F 55.4 °F 64% 29.78 in 10.0 mi West 6.9 mph 17.3 mph N/A   Scattered Clouds
6:53 PM 66.2 °F 55.4 °F 68% 29.77 in 10.0 mi West 4.6 mph - N/A   Mostly Cloudy
7:12 PM 68.0 °F 55.4 °F 64% 29.77 in 10.0 mi West 3.5 mph - N/A   Mostly Cloudy
7:33 PM 68.0 °F 55.4 °F 64% 29.77 in 10.0 mi Calm Calm - N/A   Scattered Clouds
7:53 PM 68.0 °F 55.4 °F 64% 29.77 in 10.0 mi West 3.5 mph - N/A   Clear
8:12 PM 66.2 °F 55.4 °F 68% 29.77 in 10.0 mi West 3.5 mph - N/A   Clear
8:33 PM 66.2 °F 57.2 °F 73% 29.77 in 10.0 mi WSW 4.6 mph - N/A   Clear
8:53 PM 64.4 °F 55.4 °F 73% 29.78 in 10.0 mi WSW 3.5 mph - N/A   Clear
9:12 PM 62.6 °F 55.4 °F 77% 29.78 in 10.0 mi WSW 3.5 mph - N/A   Clear
9:33 PM 62.6 °F 57.2 °F 82% 29.79 in 10.0 mi WSW 4.6 mph - N/A   Scattered Clouds
9:53 PM 62.6 °F 55.4 °F 77% 29.80 in 10.0 mi West 6.9 mph - N/A   Scattered Clouds
10:12 PM 62.6 °F 53.6 °F 72% 29.81 in 10.0 mi WNW 6.9 mph - N/A   Scattered Clouds
10:33 PM 62.6 °F 53.6 °F 72% 29.81 in 10.0 mi NW 4.6 mph - N/A   Clear
10:53 PM 62.6 °F 51.8 °F 68% 29.82 in 10.0 mi NNW 6.9 mph - N/A   Clear
11:13 PM 62.6 °F 48.2 °F 59% 29.82 in 10.0 mi NNW 8.1 mph - N/A   Clear
11:33 PM 62.6 °F 44.6 °F 52% 29.83 in 10.0 mi NNW 10.4 mph - N/A   Clear
11:53 PM 60.8 °F 44.6 °F 55% 29.84 in 10.0 mi NW 5.8 mph - N/A   Clear